Regional Weather Roundup
Issued by NWS Mobile, AL

Home | Current Version | Previous Version | Text Only | Print | Product List | Glossary Off
Versions: 1 2 3 4 5 6 7 8 9 10 11 12 13 14 15 16 17 18 19 20 21 22 23 24 25 26 27 28 29 30 31 32 33 34 35 36 37 38 39 40 41 42 43 44 45 46 47 48 49 50

000
ASUS44 KMOB 310312
RWRMOB
REGIONAL WEATHER ROUNDUP
NATIONAL WEATHER SERVICE MOBILE AL
1000 PM CDT THU JUL 30 2015

NOTE: "FAIR" INDICATES FEW OR NO CLOUDS BELOW 12,000 FEET WITH NO
      SIGNIFICANT WEATHER AND/OR OBSTRUCTIONS TO VISIBILITY.

  * THESE STATIONS ARE PART OF THE UNIVERSITY OF SOUTH ALABAMA
    MESONET AND ARE NOT UNDER NWS OR FAA QUALITY CONTROL.

ALZ061>064-310400-
COASTAL ALABAMA

CITY           SKY/WX    TMP DP  RH WIND       PRES   REMARKS
MOBILE REG APT CLOUDY    75  74  96 NW5       29.96F
BROOKLEY FIELD CLOUDY    77  74  90 N5        29.96F
USA CAMPUS*      N/A     77  75  94 CALM      29.96F
DOG RIVER*     NOT AVBL


CITY           SKY/WX    TMP DP  RH WIND       PRES   REMARKS
MOUNT VERNON*    N/A     73  72  94 CALM      29.96S
SARALAND*      NOT AVBL
BAY MINETTE*   NOT AVBL
LOXLEY*          N/A     75  73  94 CALM      29.94F
ROBERTSDALE*     N/A     77  73  88 CALM      29.94F
FAIRHOPE*      NOT AVBL
ELBERTA*         N/A     77  73  88 N2        29.92F
FOLEY*         NOT AVBL
GRAND BAY*     NOT AVBL
DAUPHIN ISLND* NOT AVBL
BON SCOUR NWR* NOT AVBL
GULF SHORES    CLOUDY    79  73  81 N3        29.93F

$$

ALZ051>060-310400-
INTERIOR SOUTHWEST AND SOUTH CENTRAL ALABAMA

CITY           SKY/WX    TMP DP  RH WIND       PRES   REMARKS
GREENVILLE     CLOUDY    81  72  74 W3        29.97S
EVERGREEN      CLOUDY    78  74  87 CALM      29.98R
CASTLEBERRY*   NOT AVBL
ATMORE*          N/A     75  75 100 NW6       29.96F
DIXIE*         NOT AVBL
ANDALUSIA/OPP  CLOUDY    81  76  84 N5        29.94
ANDALUSIA*       N/A     77  77 100 W3        29.95F
FLORALA APT    LGT RAIN  77  75  93 CALM      29.96F
FLORALA*         N/A     77  77 100 N6        29.91F

$$

FLZ001>006-310400-
WESTERN FLORIDA PANHANDLE

CITY           SKY/WX    TMP DP  RH WIND       PRES   REMARKS
PENSACOLA      LGT RAIN  77  74  90 N10       29.91F
NAS PENSACOLA  CLOUDY    77  73  87 NW5       29.92R
MILTON         LGT RAIN  77  75  93 N3        29.91F
WHTNG S FIELD  LGT RAIN  78  76  93 N8        29.91F


CITY           SKY/WX    TMP DP  RH WIND       PRES   REMARKS
WALNUT HILL*   NOT AVBL
JAY*             N/A     77  73  88 NW3       29.94F
DUKE FIELD     CLOUDY    77  75  92 NE3       29.92F
CRESTVIEW      CLOUDY    78  74  87 N3        29.94F
VALPARAISO     MOCLDY    78  75  92 NE6       29.92F
DESTIN         CLOUDY    81  76  84 NE7       29.92F

$$

MSZ076-079-310400-
INTERIOR SOUTHEAST MISSISSIPPI

CITY           SKY/WX    TMP DP  RH WIND       PRES   REMARKS
LEAKESVILLE*   NOT AVBL
AGRICOLA*      NOT AVBL

$$

MARINE OBSERVATIONS

STATION/POSITION TIME  TEMP    WIND        PRES    WAVE
                       AIR SEA DIR/SP/G            HT/PER
                 (UTC) (F)     (DEG/KT/KT) (MB)    (FT/S)
PASCAGOULA       0200   76     340/  7/  9 1014.4R
PETIT BOIS ISLND 0200   81     340/ 17/ 20 1014.5F
GRAND BAY        0100   79      10/  9     1015.0R
KATRINA CUT      0200   83      10/ 13     1014.9R
CEDAR POINT      0200   82      30/ 10     1014.2R
E DAUPHIN ISLAND 0200   84      10/ 16/ 18 1014.1R
MIDDLE BAY LIGHT 0200   80     340/ 13     1013.9R
USCG MOBILE BAY  0200   78 85   CALM  /  3 1013.5R
STATE DOCKS      0200   78 88              1014.3R
MEAHER PARK      0200   78     320/  4     1014.2R
WEEKS BAY        0100   82                   N/A
12 S ORANGE BCH  0250   82 86  350/  8/ 14 1013.0R   1/ 2
PENSACOLA BAY    0200   79 85   10/  5/  8 1013.6R
64 S DAUPHIN ISL 0250   85 90  350/ 21/ 27 1013.2F   2/ 3
67 S FORT MORGAN 0230   82     220/ 10     1013.5F

$$

SELECTED LOCATIONS ACROSS THE REGION

CITY           SKY/WX    TMP DP  RH WIND       PRES   REMARKS
NEW ORLEANS    CLOUDY    81  74  79 NE12      30.00R
GULFPORT       LGT RAIN  77  75  93 NW5       29.97R
PASCAGOULA AP  LGT RAIN  75  74  96 CALM      29.96S
PASCAGOULA*    NOT AVBL
HATTIESBURG    CLOUDY    76  73  91 CALM      30.02R
LAUREL         CLOUDY    75  72  88 S3        30.03R
MERIDIAN       PTCLDY    82  74  76 N8        30.01R
JACKSON        MOCLDY    86  71  60 NE7       30.02R
MONTGOMERY     CLOUDY    81  76  84 SW3       29.96R
TROY           CLOUDY    78  73  84 SW3       29.98R
KINSTON*       NOT AVBL
GENEVA*          N/A     77  75  94 CALM      29.96S
ASHFORD*         N/A     77  77 100 W3        29.95F
DOTHAN         CLOUDY    80  75  84 SW5       29.98S
PANAMA CITY    CLOUDY    78  76  93 N3        29.94R

$$



USA.gov is the U.S. government's official web portal to all federal, state and local government web resources and services.